Regional Weather Roundup
Issued by NWS

Home | Current Version | Previous Version | Graphics & Text | Print | Product List | Glossary On
Versions: 1 2 3 4 5 6 7 8 9 10 11 12 13 14 15 16 17 18 19 20 21 22 23 24 25 26 27 28 29 30 31 32 33 34 35 36 37 38 39 40 41 42 43 44 45 46 47 48 49 50
000
ASUS43 KOAX 221202
RWRNE

WEATHER ROUNDUP FOR NEBRASKA
NATIONAL WEATHER SERVICE OMAHA NE
700 AM CDT THU JUN 22 2017

NOTES: SATELLITE DATA IS BEING USED TO AUGMENT CLOUD COVER ABOVE
       12000 FEET.
       "FAIR" INDICATES FEW OR NO CLOUDS BELOW 12,000 FEET WITH NO
       SIGNIFICANT WEATHER AND/OR OBSTRUCTIONS TO VISIBILITY.

  * THESE STATIONS DO NOT REPORT WEATHER SUCH AS RAIN...SNOW OR FOG.

NEZ001>004-019>022-054>056-221300-
NEBRASKA PANHANDLE

CITY           SKY/WX    TMP DP  RH WIND       PRES   REMARKS
SCOTTSBLUFF    PTCLDY    61  51  70 NW13      29.80R
6HR MIN TEMP:  60; 6HR MAX TEMP:  75;

ALLIANCE       CLEAR     57  52  83 NW12      29.77R
6HR MIN TEMP:  55; 6HR MAX TEMP:  67;

CHADRON        CLEAR     60  49  66 N9        29.81R
6HR MIN TEMP:  58; 6HR MAX TEMP:  66;

GORDON         FAIR      60  56  85 NW9       29.76R
6HR MIN TEMP:  59; 6HR MAX TEMP:  67;

KIMBALL        CLEAR     70  41  35 W13       29.86R
SIDNEY         CLOUDY    66  45  46 W8        29.81R
6HR MIN TEMP:  61; 6HR MAX TEMP:  72;

$$

NEZ057>060-069>072-079>082-221300-
SOUTHWEST NEBRASKA

CITY           SKY/WX    TMP DP  RH WIND       PRES   REMARKS
NORTH PLATTE   CLEAR     70  56  61 VRB6      29.66R
6HR MIN TEMP:  68; 6HR MAX TEMP:  79;

IMPERIAL       CLEAR     68  52  56 W13       29.71R
6HR MIN TEMP:  68; 6HR MAX TEMP:  73;

LEXINGTON      CLOUDY    72  59  62 S13       29.66F
MCCOOK         CLEAR     65  57  75 S7        29.68F
6HR MIN TEMP:  65; 6HR MAX TEMP:  79;

OGALLALA       CLEAR     63  52  66 W8        29.69S
$$

NEZ005>010-023>029-035>040-094-221300-
NORTH CENTRAL NEBRASKA

CITY           SKY/WX    TMP DP  RH WIND       PRES   REMARKS
VALENTINE      PTCLDY    66  55  67 NE18      29.67S
6HR MIN TEMP:  65; 6HR MAX TEMP:  78;

AINSWORTH      PTCLDY    65  64  99 NE14      29.67S
BROKEN BOW     CLEAR     72  59  63 SW9       29.63F
6HR MIN TEMP:  71; 6HR MAX TEMP:  78;

O`NEILL        PTCLDY    68  68  99 NE14      29.69R FOG
ORD            CLEAR     71  57  61 E5        29.62S
6HR MIN TEMP:  70; 6HR MAX TEMP:  79;

THEDFORD       CLEAR     71  56  58 SW5       29.65S
$$

NEZ041-046>049-061>064-073>077-083>087-221300-
SOUTH CENTRAL NEBRASKA

CITY           SKY/WX    TMP DP  RH WIND       PRES   REMARKS
GRAND ISLAND   CLEAR     73  59  61 S17       29.67F
6HR MIN TEMP:  68; 6HR MAX TEMP:  79;

AURORA         CLEAR     72  58  61 S14       29.67F
HASTINGS       CLEAR     72  58  61 S14G21    29.70F
6HR MIN TEMP:  71; 6HR MAX TEMP:  83;

HEBRON         CLOUDY    75  60  58 S15G23    29.69F
HOLDREGE       PTCLDY    70  57  63 S14       29.69S
KEARNEY *      CLEAR     72  55  56 S12       29.68S
YORK           CLEAR     73  59  60 SW17G23   29.67F
$$

NEZ011>018-030>034-042>045-221300-
NORTHEAST NEBRASKA

CITY           SKY/WX    TMP DP  RH WIND       PRES   REMARKS
NORFOLK        CLEAR     73  57  57 CALM      29.64R
6HR MIN TEMP:  67; 6HR MAX TEMP:  83;

ALBION         CLEAR     71  58  64 SE5       29.64F
BLAIR          MOSUNNY   75  61  61 S14       29.67S
FREMONT        MOSUNNY   74  60  60 S8        29.67S
TEKAMAH        MOSUNNY   76  59  55 S10       29.66R
6HR MIN TEMP:  76; 6HR MAX TEMP:  81;

WAYNE          SUNNY     71  62  74 S3        29.65S
$$

NEZ050>053-065>068-078-088>093-221300-
SOUTHEAST NEBRASKA

CITY           SKY/WX    TMP DP  RH WIND       PRES   REMARKS
LINCOLN        PTCLDY    73  63  70 S8        29.67F
6HR MIN TEMP:  70; 6HR MAX TEMP:  82;

OMAHA EPPLEY   PTSUNNY   77  59  53 S13       29.67S
6HR MIN TEMP:  76; 6HR MAX TEMP:  83;

BEATRICE       MOCLDY    75  62  64 S14       29.69S
FALLS CITY     CLOUDY    74  62  66 S15G23    29.71F
6HR MIN TEMP:  74; 6HR MAX TEMP:  79;

NEBRASKA CITY  CLOUDY    75  60  59 SW13G24   29.71R
PLATTSMOUTH    CLOUDY    73  56  53 S8        29.69F
$$

NEZ044-045-051>053-067-221300-
OMAHA AREA

CITY           SKY/WX    TMP DP  RH WIND       PRES   REMARKS
OMAHA EPPLEY   PTSUNNY   77  59  53 S13       29.67S
6HR MIN TEMP:  76; 6HR MAX TEMP:  83;

BLAIR          MOSUNNY   75  61  61 S14       29.67S
FREMONT        MOSUNNY   74  60  60 S8        29.67S
MILLARD        CLOUDY    76  63  62 SE7       29.68S
OFFUTT AFB     PTSUNNY   74  59  58 SE8       29.68S
PLATTSMOUTH    CLOUDY    73  56  53 S8        29.69F
WAHOO          FAIR      72  59  63 S5        29.67S
$$




USA.gov is the U.S. government's official web portal to all federal, state and local government web resources and services.